星链-4216 (STARLINK-4216 )

导读

STARLINK-4216是美国太空探索技术公司SpaceX星链卫星互联网项目的卫星,于2022年7月7日发射入轨,属于星链星座组网卫星。星链项目旨在构建全球卫星互联网,该卫星承担着为全球偏远地区、海洋空域等提供低延迟宽带网络覆盖的任务,是美国星链低轨星座建设中的一员,补充完善了星链星座的通信覆盖能力。

基本信息
目录编号:
53022
目录名称:
STARLINK-4216
国际标识:
2022-076AN
轨道中心:
EARTH
卫星名称:
星链-4216
卫星全名:
星链-4216 (STARLINK-4216 )
卫星状态:
在轨 (已飞行1520 天)
发射日期:
2022-07-07 UTC
国别 :
美国 (US)
星等 :
--
轨道信息
数据来源 国际轨道数据
星历时间: 2026-09-03T14:56:23+0800
23小时前
查看轨道信息
半长轴: 6840.898km
偏心率: 0.0001238
轨道倾角: 53.160°
近地点辐角 110.996°
升交点赤经 358.090°
平近点角 249.118°
近地点: 461.914km
远地点: 463.608km
周期: 93.849分钟
每日圈数: 15.343807
详细信息
固有亮度:
5
最大亮度:
2.5
卫星平台:
Starlink v1.5
覆盖范围:
全球
运营商:
太空探索技术公司
运营商所在国:
美国
制造商(研发单位):
太空探索技术公司
制造商所在国:
美国
使用方式:
暂无
卫星简介
星链(Starlink)计划是由太空探索技术公司(SpaceX)提出的一个巨型低轨卫星互联网星座项目,计划在2019年至2024年间在太空搭建由约1.2万颗卫星组成的“星链”网络,其中1584颗将部署在地球上空550千米处的近地轨道,并从2020年开始工作。该卫星仍在工作。
2D轨道图
3D轨道图
轨道高度分析图
轨道倾角分析图
轨道综合分析图
查看轨道综合分析图
交会数据列表
事件ID 空间交会对象 最接近时刻(TCA) 交会距离 交会风险概率(CRP) 交会风险指数(CRI) 操作
CDM_260905-135605-302206-871021
2026-09-05T
13:56:32+0000
1.015 km
极远距离
1.546096E-5 中风险 0.59
CDM_260904-211105-302205-372421
2026-09-04T
21:11:26+0000
2.333 km
极远距离
1.779993E-6 低风险 0.4
CDM_260904-203905-171905-302221
2026-09-04T
20:39:49+0000
2.368 km
极远距离
1.559859E-6 低风险 0.39